Year,Month,Day,Hour,Minute,Value (Times are PST for temperature in C)
2011,07,04,00,00,11.90
2011,07,04,00,01,11.80
2011,07,04,00,02,11.80
2011,07,04,00,03,11.80
2011,07,04,00,04,11.70
2011,07,04,00,05,11.70
2011,07,04,00,06,11.70
2011,07,04,00,07,11.70
2011,07,04,00,08,11.70
2011,07,04,00,09,11.70
2011,07,04,00,10,11.60
2011,07,04,00,11,11.60
2011,07,04,00,12,11.60
2011,07,04,00,13,11.60
2011,07,04,00,14,11.60
2011,07,04,00,15,11.50
2011,07,04,00,16,11.50
2011,07,04,00,17,11.50
2011,07,04,00,18,11.40
2011,07,04,00,19,11.40
2011,07,04,00,20,11.40
2011,07,04,00,21,11.40
2011,07,04,00,22,11.40
2011,07,04,00,23,11.40
2011,07,04,00,24,11.40
2011,07,04,00,25,11.40
2011,07,04,00,26,11.30
2011,07,04,00,27,11.30
2011,07,04,00,28,11.30
2011,07,04,00,29,11.30
2011,07,04,00,30,11.30
2011,07,04,00,31,11.30
2011,07,04,00,32,11.30
2011,07,04,00,33,11.30
2011,07,04,00,34,11.30
2011,07,04,00,35,11.20
2011,07,04,00,36,11.20
2011,07,04,00,37,11.20
2011,07,04,00,38,11.20
2011,07,04,00,39,11.20
2011,07,04,00,40,11.20
2011,07,04,00,41,11.10
2011,07,04,00,42,11.10
2011,07,04,00,43,11.10
2011,07,04,00,44,11.10
2011,07,04,00,45,11.00
2011,07,04,00,46,11.00
2011,07,04,00,47,11.00
2011,07,04,00,48,11.00
2011,07,04,00,49,11.00
2011,07,04,00,50,11.00
2011,07,04,00,51,10.90
2011,07,04,00,52,10.90
2011,07,04,00,53,10.90
2011,07,04,00,54,10.80
2011,07,04,00,55,10.80
2011,07,04,00,56,10.90
2011,07,04,00,57,10.90
2011,07,04,00,58,10.80
2011,07,04,00,59,10.80
2011,07,04,01,00,10.80
2011,07,04,01,01,10.80
2011,07,04,01,02,10.80
2011,07,04,01,03,10.70
2011,07,04,01,04,10.70
2011,07,04,01,05,10.70
2011,07,04,01,06,10.60
2011,07,04,01,07,10.60
2011,07,04,01,08,10.60
2011,07,04,01,09,10.60
2011,07,04,01,10,10.60
2011,07,04,01,11,10.50
2011,07,04,01,12,10.50
2011,07,04,01,13,10.50
2011,07,04,01,14,10.50
2011,07,04,01,15,10.50
2011,07,04,01,16,10.40
2011,07,04,01,17,10.40
2011,07,04,01,18,10.40
2011,07,04,01,19,10.40
2011,07,04,01,20,10.40
2011,07,04,01,21,10.40
2011,07,04,01,22,10.30
2011,07,04,01,23,10.30
2011,07,04,01,24,10.30
2011,07,04,01,25,10.30
2011,07,04,01,26,10.30
2011,07,04,01,27,10.30
2011,07,04,01,28,10.30
2011,07,04,01,29,10.20
2011,07,04,01,30,10.20
2011,07,04,01,31,10.20
2011,07,04,01,32,10.20
2011,07,04,01,33,10.20
2011,07,04,01,34,10.20
2011,07,04,01,35,10.10
2011,07,04,01,36,10.10
2011,07,04,01,37,10.10
2011,07,04,01,38,10.10
2011,07,04,01,39,10.10
2011,07,04,01,40,10.10
2011,07,04,01,41,10.10
2011,07,04,01,42,10.10
2011,07,04,01,43,10.10
2011,07,04,01,44,10.10
2011,07,04,01,45,10.00
2011,07,04,01,46,10.00
2011,07,04,01,47,10.00
2011,07,04,01,48,10.00
2011,07,04,01,49,9.90
2011,07,04,01,50,9.90
2011,07,04,01,51,9.90
2011,07,04,01,52,9.90
2011,07,04,01,53,9.90
2011,07,04,01,54,9.90
2011,07,04,01,55,9.90
2011,07,04,01,56,9.90
2011,07,04,01,57,9.90
2011,07,04,01,58,9.90
2011,07,04,01,59,9.80
2011,07,04,02,00,9.80
2011,07,04,02,01,9.80
2011,07,04,02,02,9.80
2011,07,04,02,03,9.80
2011,07,04,02,04,9.80
2011,07,04,02,05,9.80
2011,07,04,02,06,9.80
2011,07,04,02,07,9.80
2011,07,04,02,08,9.80
2011,07,04,02,09,9.80
2011,07,04,02,10,9.80
2011,07,04,02,11,9.80
2011,07,04,02,12,9.80
2011,07,04,02,13,9.80
2011,07,04,02,14,9.80
2011,07,04,02,15,9.80
2011,07,04,02,16,9.80
2011,07,04,02,17,9.80
2011,07,04,02,18,9.70
2011,07,04,02,19,9.70
2011,07,04,02,20,9.70
2011,07,04,02,21,9.70
2011,07,04,02,22,9.70
2011,07,04,02,23,9.70
2011,07,04,02,24,9.60
2011,07,04,02,25,9.60
2011,07,04,02,26,9.60
2011,07,04,02,27,9.60
2011,07,04,02,28,9.60
2011,07,04,02,29,9.50
2011,07,04,02,30,9.50
2011,07,04,02,31,9.50
2011,07,04,02,32,9.50
2011,07,04,02,33,9.40
2011,07,04,02,34,9.40
2011,07,04,02,35,9.40
2011,07,04,02,36,9.40
2011,07,04,02,37,9.40
2011,07,04,02,38,9.40
2011,07,04,02,39,9.40
2011,07,04,02,40,9.40
2011,07,04,02,41,9.40
2011,07,04,02,42,9.40
2011,07,04,02,43,9.30
2011,07,04,02,44,9.30
2011,07,04,02,45,9.30
2011,07,04,02,46,9.30
2011,07,04,02,47,9.30
2011,07,04,02,48,9.30
2011,07,04,02,49,9.30
2011,07,04,02,50,9.30
2011,07,04,02,51,9.30
2011,07,04,02,52,9.30
2011,07,04,02,53,9.30
2011,07,04,02,54,9.30
2011,07,04,02,55,9.30
2011,07,04,02,56,9.30
2011,07,04,02,57,9.30
2011,07,04,02,58,9.30
2011,07,04,02,59,9.30
2011,07,04,03,00,9.30
2011,07,04,03,01,9.30
2011,07,04,03,02,9.20
2011,07,04,03,03,9.20
2011,07,04,03,04,9.20
2011,07,04,03,05,9.20
2011,07,04,03,06,9.20
2011,07,04,03,07,9.20
2011,07,04,03,08,9.20
2011,07,04,03,09,9.20
2011,07,04,03,10,9.20
2011,07,04,03,11,9.10
2011,07,04,03,12,9.10
2011,07,04,03,13,9.10
2011,07,04,03,14,9.10
2011,07,04,03,15,9.10
2011,07,04,03,16,9.10
2011,07,04,03,17,9.00
2011,07,04,03,18,9.00
2011,07,04,03,19,9.00
2011,07,04,03,20,9.00
2011,07,04,03,21,9.00
2011,07,04,03,22,9.00
2011,07,04,03,23,9.00
2011,07,04,03,24,9.00
2011,07,04,03,25,9.00
2011,07,04,03,26,9.00
2011,07,04,03,27,9.00
2011,07,04,03,28,9.00
2011,07,04,03,29,9.00
2011,07,04,03,30,9.00
2011,07,04,03,31,8.90
2011,07,04,03,32,8.90
2011,07,04,03,33,8.90
2011,07,04,03,34,8.90
2011,07,04,03,35,8.90
2011,07,04,03,36,8.90
2011,07,04,03,37,8.90
2011,07,04,03,38,8.90
2011,07,04,03,39,8.90
2011,07,04,03,40,8.90
2011,07,04,03,41,8.90
2011,07,04,03,42,8.90
2011,07,04,03,43,8.90
2011,07,04,03,44,8.90
2011,07,04,03,45,8.90
2011,07,04,03,46,8.90
2011,07,04,03,47,8.90
2011,07,04,03,48,8.80
2011,07,04,03,49,8.80
2011,07,04,03,50,8.80
2011,07,04,03,51,8.80
2011,07,04,03,52,8.80
2011,07,04,03,53,8.80
2011,07,04,03,54,8.80
2011,07,04,03,55,8.80
2011,07,04,03,56,8.80
2011,07,04,03,57,8.80
2011,07,04,03,58,8.80
2011,07,04,03,59,8.80
2011,07,04,04,00,8.80
2011,07,04,04,01,8.80
2011,07,04,04,02,8.80
2011,07,04,04,03,8.80
2011,07,04,04,04,8.80
2011,07,04,04,05,8.80
2011,07,04,04,06,8.70
2011,07,04,04,07,8.70
2011,07,04,04,08,8.70
2011,07,04,04,09,8.70
2011,07,04,04,10,8.70
2011,07,04,04,11,8.70
2011,07,04,04,12,8.70
2011,07,04,04,13,8.70
2011,07,04,04,14,8.70
2011,07,04,04,15,8.60
2011,07,04,04,16,8.60
2011,07,04,04,17,8.60
2011,07,04,04,18,8.60
2011,07,04,04,19,8.60
2011,07,04,04,20,8.60
2011,07,04,04,21,8.60
2011,07,04,04,22,8.60
2011,07,04,04,23,8.60
2011,07,04,04,24,8.60
2011,07,04,04,25,8.60
2011,07,04,04,26,8.60
2011,07,04,04,27,8.60
2011,07,04,04,28,8.60
2011,07,04,04,29,8.60
2011,07,04,04,30,8.60
2011,07,04,04,31,8.50
2011,07,04,04,32,8.50
2011,07,04,04,33,8.50
2011,07,04,04,34,8.50
2011,07,04,04,35,8.50
2011,07,04,04,36,8.50
2011,07,04,04,37,8.50
2011,07,04,04,38,8.50
2011,07,04,04,39,8.40
2011,07,04,04,40,8.40
2011,07,04,04,41,8.40
2011,07,04,04,42,8.40
2011,07,04,04,43,8.40
2011,07,04,04,44,8.40
2011,07,04,04,45,8.40
2011,07,04,04,46,8.40
2011,07,04,04,47,8.40
2011,07,04,04,48,8.40
2011,07,04,04,49,8.30
2011,07,04,04,50,8.30
2011,07,04,04,51,8.30
2011,07,04,04,52,8.30
2011,07,04,04,53,8.30
2011,07,04,04,54,8.30
2011,07,04,04,55,8.30
2011,07,04,04,56,8.30
2011,07,04,04,57,8.30
2011,07,04,04,58,8.30
2011,07,04,04,59,8.30
2011,07,04,05,00,8.30
2011,07,04,05,01,8.30
2011,07,04,05,02,8.30
2011,07,04,05,03,8.30
2011,07,04,05,04,8.30
2011,07,04,05,05,8.30
2011,07,04,05,06,8.30
2011,07,04,05,07,8.30
2011,07,04,05,08,8.30
2011,07,04,05,09,8.30
2011,07,04,05,10,8.30
2011,07,04,05,11,8.30
2011,07,04,05,12,8.30
2011,07,04,05,13,8.30
2011,07,04,05,14,8.30
2011,07,04,05,15,8.30
2011,07,04,05,16,8.20
2011,07,04,05,17,8.20
2011,07,04,05,18,8.20
2011,07,04,05,19,8.20
2011,07,04,05,20,8.20
2011,07,04,05,21,8.20
2011,07,04,05,22,8.20
2011,07,04,05,23,8.20
2011,07,04,05,24,8.20
2011,07,04,05,25,8.20
2011,07,04,05,26,8.20
2011,07,04,05,27,8.20
2011,07,04,05,28,8.20
2011,07,04,05,29,8.20
2011,07,04,05,30,8.20
2011,07,04,05,31,8.20
2011,07,04,05,32,8.20
2011,07,04,05,33,8.20
2011,07,04,05,34,8.20
2011,07,04,05,35,8.30
2011,07,04,05,36,8.30
2011,07,04,05,37,8.30
2011,07,04,05,38,8.30
2011,07,04,05,39,8.30
2011,07,04,05,40,8.20
2011,07,04,05,41,8.20
2011,07,04,05,42,8.20
2011,07,04,05,43,8.20
2011,07,04,05,44,8.30
2011,07,04,05,45,8.30
2011,07,04,05,46,8.30
2011,07,04,05,47,8.30
2011,07,04,05,48,8.30
2011,07,04,05,49,8.30
2011,07,04,05,50,8.30
2011,07,04,05,51,8.30
2011,07,04,05,52,8.40
2011,07,04,05,53,8.40
2011,07,04,05,54,8.40
2011,07,04,05,55,8.40
2011,07,04,05,56,8.40
2011,07,04,05,57,8.50
2011,07,04,05,58,8.50
2011,07,04,05,59,8.50
2011,07,04,06,00,8.50
2011,07,04,06,01,8.60
2011,07,04,06,02,8.60
2011,07,04,06,03,8.60
2011,07,04,06,04,8.60
2011,07,04,06,05,8.60
2011,07,04,06,06,8.70
2011,07,04,06,07,8.70
2011,07,04,06,08,8.70
2011,07,04,06,09,8.70
2011,07,04,06,10,8.80
2011,07,04,06,11,8.80
2011,07,04,06,12,8.80
2011,07,04,06,13,8.80
2011,07,04,06,14,8.80
2011,07,04,06,15,8.90
2011,07,04,06,16,8.90
2011,07,04,06,17,8.90
2011,07,04,06,18,8.90
2011,07,04,06,19,9.00
2011,07,04,06,20,9.00
2011,07,04,06,21,9.00
2011,07,04,06,22,9.10
2011,07,04,06,23,9.10
2011,07,04,06,24,9.10
2011,07,04,06,25,9.10
2011,07,04,06,26,9.20
2011,07,04,06,27,9.20
2011,07,04,06,28,9.20
2011,07,04,06,29,9.30
2011,07,04,06,30,9.30
2011,07,04,06,31,9.40
2011,07,04,06,32,9.40
2011,07,04,06,33,9.50
2011,07,04,06,34,9.50
2011,07,04,06,35,9.60
2011,07,04,06,36,9.60
2011,07,04,06,37,9.70
2011,07,04,06,38,9.70
2011,07,04,06,39,9.80
2011,07,04,06,40,9.80
2011,07,04,06,41,9.90
2011,07,04,06,42,9.90
2011,07,04,06,43,10.00
2011,07,04,06,44,10.00
2011,07,04,06,45,10.10
2011,07,04,06,46,10.10
2011,07,04,06,47,10.20
2011,07,04,06,48,10.20
2011,07,04,06,49,10.30
2011,07,04,06,50,10.30
2011,07,04,06,51,10.40
2011,07,04,06,52,10.40
2011,07,04,06,53,10.50
2011,07,04,06,54,10.50
2011,07,04,06,55,10.60
2011,07,04,06,56,10.70
2011,07,04,06,57,10.70
2011,07,04,06,58,10.80
2011,07,04,06,59,10.80
2011,07,04,07,00,10.90
2011,07,04,07,01,10.90
2011,07,04,07,02,11.00
2011,07,04,07,03,11.10
2011,07,04,07,04,11.10
2011,07,04,07,05,11.20
2011,07,04,07,06,11.20
2011,07,04,07,07,11.30
2011,07,04,07,08,11.30
2011,07,04,07,09,11.40
2011,07,04,07,10,11.40
2011,07,04,07,11,11.50
2011,07,04,07,12,11.50
2011,07,04,07,13,11.60
2011,07,04,07,14,11.60
2011,07,04,07,15,11.60
2011,07,04,07,16,11.70
2011,07,04,07,17,11.70
2011,07,04,07,18,11.80
2011,07,04,07,19,11.80
2011,07,04,07,20,11.80
2011,07,04,07,21,11.80
2011,07,04,07,22,11.80
2011,07,04,07,23,11.80
2011,07,04,07,24,11.90
2011,07,04,07,25,11.90
2011,07,04,07,26,11.90
2011,07,04,07,27,12.00
2011,07,04,07,28,12.00
2011,07,04,07,29,12.10
2011,07,04,07,30,12.10
2011,07,04,07,31,12.10
2011,07,04,07,32,12.10
2011,07,04,07,33,12.20
2011,07,04,07,34,12.20
2011,07,04,07,35,12.20
2011,07,04,07,36,12.30
2011,07,04,07,37,12.30
2011,07,04,07,38,12.40
2011,07,04,07,39,12.40
2011,07,04,07,40,12.40
2011,07,04,07,41,12.40
2011,07,04,07,42,12.40
2011,07,04,07,43,12.40
2011,07,04,07,44,12.40
2011,07,04,07,45,12.30
2011,07,04,07,46,12.30
2011,07,04,07,47,12.30
2011,07,04,07,48,12.30
2011,07,04,07,49,12.30
2011,07,04,07,50,12.30
2011,07,04,07,51,12.30
2011,07,04,07,52,12.30
2011,07,04,07,53,12.20
2011,07,04,07,54,12.20
2011,07,04,07,55,12.10
2011,07,04,07,56,12.10
2011,07,04,07,57,12.10
2011,07,04,07,58,12.10
2011,07,04,07,59,12.10
2011,07,04,08,00,12.10
2011,07,04,08,01,12.10
2011,07,04,08,02,12.10
2011,07,04,08,03,12.10
2011,07,04,08,04,12.10
2011,07,04,08,05,12.10
2011,07,04,08,06,12.10
2011,07,04,08,07,12.00
2011,07,04,08,08,12.00
2011,07,04,08,09,12.00
2011,07,04,08,10,12.00
2011,07,04,08,11,11.90
2011,07,04,08,12,11.90
2011,07,04,08,13,11.90
2011,07,04,08,14,11.80
2011,07,04,08,15,11.80
2011,07,04,08,16,11.80
2011,07,04,08,17,11.80
2011,07,04,08,18,11.80
2011,07,04,08,19,11.90
2011,07,04,08,20,11.90
2011,07,04,08,21,11.90
2011,07,04,08,22,11.90
2011,07,04,08,23,11.90
2011,07,04,08,24,11.90
2011,07,04,08,25,11.90
2011,07,04,08,26,11.90
2011,07,04,08,27,11.90
2011,07,04,08,28,11.90
2011,07,04,08,29,11.90
2011,07,04,08,30,11.90
2011,07,04,08,31,11.90
2011,07,04,08,32,11.80
2011,07,04,08,33,11.90
2011,07,04,08,34,12.00
2011,07,04,08,35,12.10
2011,07,04,08,36,12.20
2011,07,04,08,37,12.30
2011,07,04,08,38,12.40
2011,07,04,08,39,12.40
2011,07,04,08,40,12.50
2011,07,04,08,41,12.50
2011,07,04,08,42,12.40
2011,07,04,08,43,12.40
2011,07,04,08,44,12.30
2011,07,04,08,45,12.30
2011,07,04,08,46,12.30
2011,07,04,08,47,12.30
2011,07,04,08,48,12.30
2011,07,04,08,49,12.30
2011,07,04,08,50,12.30
2011,07,04,08,51,12.30
2011,07,04,08,52,12.40
2011,07,04,08,53,12.40
2011,07,04,08,54,12.30
2011,07,04,08,55,12.30
2011,07,04,08,56,12.30
2011,07,04,08,57,12.40
2011,07,04,08,58,12.40
2011,07,04,08,59,12.50
2011,07,04,09,00,12.60
2011,07,04,09,01,12.70
2011,07,04,09,02,12.70
2011,07,04,09,03,12.80
2011,07,04,09,04,12.80
2011,07,04,09,05,12.90
2011,07,04,09,06,13.00
2011,07,04,09,07,13.00
2011,07,04,09,08,13.10
2011,07,04,09,09,13.10
2011,07,04,09,10,13.00
2011,07,04,09,11,13.00
2011,07,04,09,12,13.00
2011,07,04,09,13,13.10
2011,07,04,09,14,13.00
2011,07,04,09,15,12.90
2011,07,04,09,16,12.90
2011,07,04,09,17,12.90
2011,07,04,09,18,12.90
2011,07,04,09,19,12.90
2011,07,04,09,20,12.90
2011,07,04,09,21,12.80
2011,07,04,09,22,12.80
2011,07,04,09,23,12.80
2011,07,04,09,24,12.70
2011,07,04,09,25,12.60
2011,07,04,09,26,12.60
2011,07,04,09,27,12.60
2011,07,04,09,28,12.60
2011,07,04,09,29,12.60
2011,07,04,09,30,12.70
2011,07,04,09,31,12.70
2011,07,04,09,32,12.80
2011,07,04,09,33,12.90
2011,07,04,09,34,13.00
2011,07,04,09,35,13.10
2011,07,04,09,36,13.20
2011,07,04,09,37,13.30
2011,07,04,09,38,13.50
2011,07,04,09,39,13.60
2011,07,04,09,40,13.70
2011,07,04,09,41,13.80
2011,07,04,09,42,13.90
2011,07,04,09,43,14.10
2011,07,04,09,44,14.20
2011,07,04,09,45,14.30
2011,07,04,09,46,14.40
2011,07,04,09,47,14.50
2011,07,04,09,48,14.50
2011,07,04,09,49,14.60
2011,07,04,09,50,14.60
2011,07,04,09,51,14.60
2011,07,04,09,52,14.60
2011,07,04,09,53,14.60
2011,07,04,09,54,14.70
2011,07,04,09,55,14.70
2011,07,04,09,56,14.80
2011,07,04,09,57,14.80
2011,07,04,09,58,14.90
2011,07,04,09,59,14.90
2011,07,04,10,00,14.90
2011,07,04,10,01,14.90
2011,07,04,10,02,14.90
2011,07,04,10,03,14.90
2011,07,04,10,04,14.80
2011,07,04,10,05,14.80
2011,07,04,10,06,14.70
2011,07,04,10,07,14.60
2011,07,04,10,08,14.60
2011,07,04,10,09,14.60
2011,07,04,10,10,14.60
2011,07,04,10,11,14.60
2011,07,04,10,12,14.70
2011,07,04,10,13,14.70
2011,07,04,10,14,14.70
2011,07,04,10,15,14.70
2011,07,04,10,16,14.70
2011,07,04,10,17,14.70
2011,07,04,10,18,14.70
2011,07,04,10,19,14.70
2011,07,04,10,20,14.70
2011,07,04,10,21,14.70
2011,07,04,10,22,14.70
2011,07,04,10,23,14.70
2011,07,04,10,24,14.80
2011,07,04,10,25,14.80
2011,07,04,10,26,14.90
2011,07,04,10,27,14.90
2011,07,04,10,28,14.80
2011,07,04,10,29,14.70
2011,07,04,10,30,14.80
2011,07,04,10,31,14.90
2011,07,04,10,32,15.00
2011,07,04,10,33,15.00
2011,07,04,10,34,15.00
2011,07,04,10,35,15.00
2011,07,04,10,36,15.00
2011,07,04,10,37,15.00
2011,07,04,10,38,15.00
2011,07,04,10,39,15.00
2011,07,04,10,40,15.10
2011,07,04,10,41,15.10
2011,07,04,10,42,15.10
2011,07,04,10,43,15.10
2011,07,04,10,44,15.20
2011,07,04,10,45,15.30
2011,07,04,10,46,15.30
2011,07,04,10,47,15.40
2011,07,04,10,48,15.40
2011,07,04,10,49,15.40
2011,07,04,10,50,15.40
2011,07,04,10,51,15.40
2011,07,04,10,52,15.40
2011,07,04,10,53,15.40
2011,07,04,10,54,15.40
2011,07,04,10,55,15.50
2011,07,04,10,56,15.50
2011,07,04,10,57,15.50
2011,07,04,10,58,15.40
2011,07,04,10,59,15.40
2011,07,04,11,00,15.40
2011,07,04,11,01,15.40
2011,07,04,11,02,15.40
2011,07,04,11,03,15.40
2011,07,04,11,04,15.30
2011,07,04,11,05,15.40
2011,07,04,11,06,15.40
2011,07,04,11,07,15.40
2011,07,04,11,08,15.40
2011,07,04,11,09,15.40
2011,07,04,11,10,15.40
2011,07,04,11,11,15.50
2011,07,04,11,12,15.60
2011,07,04,11,13,15.60
2011,07,04,11,14,15.60
2011,07,04,11,15,15.70
2011,07,04,11,16,15.70
2011,07,04,11,17,15.70
2011,07,04,11,18,15.60
2011,07,04,11,19,15.60
2011,07,04,11,20,15.60
2011,07,04,11,21,15.60
2011,07,04,11,22,15.60
2011,07,04,11,23,15.50
2011,07,04,11,24,15.50
2011,07,04,11,25,15.50
2011,07,04,11,26,15.50
2011,07,04,11,27,15.50
2011,07,04,11,28,15.60
2011,07,04,11,29,15.60
2011,07,04,11,30,15.50
2011,07,04,11,31,15.50
2011,07,04,11,32,15.50
2011,07,04,11,33,15.50
2011,07,04,11,34,15.50
2011,07,04,11,35,15.60
2011,07,04,11,36,15.60
2011,07,04,11,37,15.70
2011,07,04,11,38,15.70
2011,07,04,11,39,15.80
2011,07,04,11,40,15.90
2011,07,04,11,41,16.00
2011,07,04,11,42,16.00
2011,07,04,11,43,16.10
2011,07,04,11,44,16.20
2011,07,04,11,45,16.30
2011,07,04,11,46,16.30
2011,07,04,11,47,16.30
2011,07,04,11,48,16.40
2011,07,04,11,49,16.50
2011,07,04,11,50,16.50
2011,07,04,11,51,16.50
2011,07,04,11,52,16.50
2011,07,04,11,53,16.40
2011,07,04,11,54,16.30
2011,07,04,11,55,16.30
2011,07,04,11,56,16.40
2011,07,04,11,57,16.40
2011,07,04,11,58,16.40
2011,07,04,11,59,16.50
2011,07,04,12,00,16.50
2011,07,04,12,01,16.50
2011,07,04,12,02,16.60
2011,07,04,12,03,16.50
2011,07,04,12,04,16.60
2011,07,04,12,05,16.60
2011,07,04,12,06,16.60
2011,07,04,12,07,16.50
2011,07,04,12,08,16.50
2011,07,04,12,09,16.50
2011,07,04,12,10,16.60
2011,07,04,12,11,16.60
2011,07,04,12,12,16.70
2011,07,04,12,13,16.80
2011,07,04,12,14,16.80
2011,07,04,12,15,16.90
2011,07,04,12,16,17.00
2011,07,04,12,17,16.90
2011,07,04,12,18,16.90
2011,07,04,12,19,16.90
2011,07,04,12,20,17.00
2011,07,04,12,21,17.00
2011,07,04,12,22,17.00
2011,07,04,12,23,17.00
2011,07,04,12,24,17.00
2011,07,04,12,25,17.00
2011,07,04,12,26,17.00
2011,07,04,12,27,17.00
2011,07,04,12,28,17.00
2011,07,04,12,29,16.90
2011,07,04,12,30,16.90
2011,07,04,12,31,16.90
2011,07,04,12,32,16.90
2011,07,04,12,33,16.90
2011,07,04,12,34,16.90
2011,07,04,12,35,17.00
2011,07,04,12,36,17.00
2011,07,04,12,37,17.10
2011,07,04,12,38,17.20
2011,07,04,12,39,17.30
2011,07,04,12,40,17.30
2011,07,04,12,41,17.40
2011,07,04,12,42,17.50
2011,07,04,12,43,17.60
2011,07,04,12,44,17.60
2011,07,04,12,45,17.60
2011,07,04,12,46,17.70
2011,07,04,12,47,17.80
2011,07,04,12,48,17.80
2011,07,04,12,49,17.80
2011,07,04,12,50,17.80
2011,07,04,12,51,17.80
2011,07,04,12,52,17.80
2011,07,04,12,53,17.80
2011,07,04,12,54,17.80
2011,07,04,12,55,17.90
2011,07,04,12,56,17.90
2011,07,04,12,57,18.00
2011,07,04,12,58,18.10
2011,07,04,12,59,18.10
2011,07,04,13,00,18.20
2011,07,04,13,01,18.30
2011,07,04,13,02,18.40
2011,07,04,13,03,18.50
2011,07,04,13,04,18.60
2011,07,04,13,05,18.60
2011,07,04,13,06,18.70
2011,07,04,13,07,18.70
2011,07,04,13,08,18.70
2011,07,04,13,09,18.70
2011,07,04,13,10,18.70
2011,07,04,13,11,18.70
2011,07,04,13,12,18.70
2011,07,04,13,13,18.70
2011,07,04,13,14,18.80
2011,07,04,13,15,18.80
2011,07,04,13,16,18.80
2011,07,04,13,17,18.80
2011,07,04,13,18,18.80
2011,07,04,13,19,18.90
2011,07,04,13,20,18.90
2011,07,04,13,21,19.00
2011,07,04,13,22,19.00
2011,07,04,13,23,19.10
2011,07,04,13,24,19.20
2011,07,04,13,25,19.20
2011,07,04,13,26,19.20
2011,07,04,13,27,19.30
2011,07,04,13,28,19.30
2011,07,04,13,29,19.30
2011,07,04,13,30,19.30
2011,07,04,13,31,19.30
2011,07,04,13,32,19.30
2011,07,04,13,33,19.30
2011,07,04,13,34,19.20
2011,07,04,13,35,19.20
2011,07,04,13,36,19.10
2011,07,04,13,37,19.00
2011,07,04,13,38,18.90
2011,07,04,13,39,18.80
2011,07,04,13,40,18.80
2011,07,04,13,41,18.80
2011,07,04,13,42,18.80
2011,07,04,13,43,18.80
2011,07,04,13,44,18.70
2011,07,04,13,45,18.70
2011,07,04,13,46,18.70
2011,07,04,13,47,18.70
2011,07,04,13,48,18.70
2011,07,04,13,49,18.70
2011,07,04,13,50,18.80
2011,07,04,13,51,18.80
2011,07,04,13,52,18.80
2011,07,04,13,53,18.90
2011,07,04,13,54,19.00
2011,07,04,13,55,19.00
2011,07,04,13,56,19.10
2011,07,04,13,57,19.00
2011,07,04,13,58,19.00
2011,07,04,13,59,19.00
2011,07,04,14,00,19.00
2011,07,04,14,01,19.00
2011,07,04,14,02,19.00
2011,07,04,14,03,19.10
2011,07,04,14,04,19.10
2011,07,04,14,05,19.20
2011,07,04,14,06,19.30
2011,07,04,14,07,19.30
2011,07,04,14,08,19.50
2011,07,04,14,09,19.60
2011,07,04,14,10,19.80
2011,07,04,14,11,19.90
2011,07,04,14,12,20.10
2011,07,04,14,13,20.20
2011,07,04,14,14,20.30
2011,07,04,14,15,20.30
2011,07,04,14,16,20.40
2011,07,04,14,17,20.40
2011,07,04,14,18,20.30
2011,07,04,14,19,20.30
2011,07,04,14,20,20.30
2011,07,04,14,21,20.20
2011,07,04,14,22,20.20
2011,07,04,14,23,20.20
2011,07,04,14,24,20.20
2011,07,04,14,25,20.20
2011,07,04,14,26,20.30
2011,07,04,14,27,20.10
2011,07,04,14,28,19.90
2011,07,04,14,29,19.80
2011,07,04,14,30,19.90
2011,07,04,14,31,20.00
2011,07,04,14,32,20.20
2011,07,04,14,33,20.30
2011,07,04,14,34,20.50
2011,07,04,14,35,20.70
2011,07,04,14,36,20.90
2011,07,04,14,37,21.00
2011,07,04,14,38,21.10
2011,07,04,14,39,21.20
2011,07,04,14,40,21.30
2011,07,04,14,41,21.30
2011,07,04,14,42,21.30
2011,07,04,14,43,21.20
2011,07,04,14,44,21.10
2011,07,04,14,45,21.10
2011,07,04,14,46,21.20
2011,07,04,14,47,21.30
2011,07,04,14,48,21.50
2011,07,04,14,49,21.60
2011,07,04,14,50,21.60
2011,07,04,14,51,21.60
2011,07,04,14,52,21.50
2011,07,04,14,53,21.40
2011,07,04,14,54,21.20
2011,07,04,14,55,21.20
2011,07,04,14,56,21.10
2011,07,04,14,57,21.10
2011,07,04,14,58,21.00
2011,07,04,14,59,20.90
2011,07,04,15,00,20.80
2011,07,04,15,01,20.70
2011,07,04,15,02,20.70
2011,07,04,15,03,20.60
2011,07,04,15,04,20.60
2011,07,04,15,05,20.60
2011,07,04,15,06,20.80
2011,07,04,15,07,20.80
2011,07,04,15,08,20.70
2011,07,04,15,09,20.60
2011,07,04,15,10,20.60
2011,07,04,15,11,20.50
2011,07,04,15,12,20.60
2011,07,04,15,13,20.70
2011,07,04,15,14,20.70
2011,07,04,15,15,20.80
2011,07,04,15,16,20.80
2011,07,04,15,17,20.70
2011,07,04,15,18,20.70
2011,07,04,15,19,20.70
2011,07,04,15,20,20.60
2011,07,04,15,21,20.70
2011,07,04,15,22,20.80
2011,07,04,15,23,20.90
2011,07,04,15,24,21.00
2011,07,04,15,25,21.20
2011,07,04,15,26,21.20
2011,07,04,15,27,21.20
2011,07,04,15,28,21.20
2011,07,04,15,29,21.20
2011,07,04,15,30,21.10
2011,07,04,15,31,21.10
2011,07,04,15,32,21.00
2011,07,04,15,33,20.90
2011,07,04,15,34,21.00
2011,07,04,15,35,21.10
2011,07,04,15,36,21.10
2011,07,04,15,37,21.20
2011,07,04,15,38,21.20
2011,07,04,15,39,21.20
2011,07,04,15,40,21.20
2011,07,04,15,41,20.90
2011,07,04,15,42,20.80
2011,07,04,15,43,20.80
2011,07,04,15,44,20.80
2011,07,04,15,45,20.70
2011,07,04,15,46,20.70
2011,07,04,15,47,20.60
2011,07,04,15,48,20.60
2011,07,04,15,49,20.70
2011,07,04,15,50,20.70
2011,07,04,15,51,20.70
2011,07,04,15,52,20.60
2011,07,04,15,53,20.50
2011,07,04,15,54,20.50
2011,07,04,15,55,20.30
2011,07,04,15,56,20.20
2011,07,04,15,57,20.20
2011,07,04,15,58,20.20
2011,07,04,15,59,20.20
2011,07,04,16,00,20.30
2011,07,04,16,01,20.30
2011,07,04,16,02,20.40
2011,07,04,16,03,20.50
2011,07,04,16,04,20.50
2011,07,04,16,05,20.50
2011,07,04,16,06,20.50
2011,07,04,16,07,20.60
2011,07,04,16,08,20.70
2011,07,04,16,09,20.70
2011,07,04,16,10,20.80
2011,07,04,16,11,20.90
2011,07,04,16,12,21.00
2011,07,04,16,13,21.00
2011,07,04,16,14,21.00
2011,07,04,16,15,20.80
2011,07,04,16,16,20.80
2011,07,04,16,17,20.80
2011,07,04,16,18,20.80
2011,07,04,16,19,20.80
2011,07,04,16,20,20.80
2011,07,04,16,21,20.90
2011,07,04,16,22,20.90
2011,07,04,16,23,20.90
2011,07,04,16,24,21.00
2011,07,04,16,25,21.00
2011,07,04,16,26,21.00
2011,07,04,16,27,20.90
2011,07,04,16,28,20.80
2011,07,04,16,29,20.80
2011,07,04,16,30,20.70
2011,07,04,16,31,20.60
2011,07,04,16,32,20.50
2011,07,04,16,33,20.40
2011,07,04,16,34,20.30
2011,07,04,16,35,20.20
2011,07,04,16,36,20.20
2011,07,04,16,37,20.30
2011,07,04,16,38,20.40
2011,07,04,16,39,20.50
2011,07,04,16,40,20.60
2011,07,04,16,41,20.60
2011,07,04,16,42,20.70
2011,07,04,16,43,20.70
2011,07,04,16,44,20.70
2011,07,04,16,45,20.70
2011,07,04,16,46,20.60
2011,07,04,16,47,20.60
2011,07,04,16,48,20.60
2011,07,04,16,49,20.50
2011,07,04,16,50,20.50
2011,07,04,16,51,20.40
2011,07,04,16,52,20.40
2011,07,04,16,53,20.40
2011,07,04,16,54,20.40
2011,07,04,16,55,20.40
2011,07,04,16,56,20.50
2011,07,04,16,57,20.50
2011,07,04,16,58,20.60
2011,07,04,16,59,20.60
2011,07,04,17,00,20.70
2011,07,04,17,01,20.70
2011,07,04,17,02,20.70
2011,07,04,17,03,20.70
2011,07,04,17,04,20.70
2011,07,04,17,05,20.70
2011,07,04,17,06,20.70
2011,07,04,17,07,20.80
2011,07,04,17,08,20.80
2011,07,04,17,09,20.80
2011,07,04,17,10,20.80
2011,07,04,17,11,20.70
2011,07,04,17,12,20.70
2011,07,04,17,13,20.70
2011,07,04,17,14,20.50
2011,07,04,17,15,20.50
2011,07,04,17,16,20.40
2011,07,04,17,17,20.30
2011,07,04,17,18,20.30
2011,07,04,17,19,20.20
2011,07,04,17,20,20.20
2011,07,04,17,21,20.10
2011,07,04,17,22,20.00
2011,07,04,17,23,20.00
2011,07,04,17,24,19.90
2011,07,04,17,25,19.90
2011,07,04,17,26,20.00
2011,07,04,17,27,20.00
2011,07,04,17,28,20.10
2011,07,04,17,29,20.00
2011,07,04,17,30,19.90
2011,07,04,17,31,19.90
2011,07,04,17,32,19.90